{"data":{"norad_id":68004,"epoch":"2026-09-20T01:06:29.007648Z","epoch_age_seconds":98783,"freshness":"FRESH","line1":"1 68004U 26039U   26263.04616907  .00013427  00000+0  49645-3 0  9997","line2":"2 68004  42.9958  31.6603 0001802 275.5424  84.5222 15.27586964 31422","mean_motion":15.27586964,"eccentricity":0.0001802,"inclination_deg":42.9958,"raan_deg":31.6603,"arg_perigee_deg":275.5424,"mean_anomaly_deg":84.5222,"bstar":0.00049645,"rev_number":3142,"period_min":94.266318968142,"perigee_km":481.79186142073,"apogee_km":484.26462537445,"semimajor_km":6861.1652433976,"source":"CELESTRAK","updated_at":"2026-09-20T09:00:43.738601Z"}}